Location: Ellerstadt
(49.4644°N, 8.2615°E)
Time: 01:57:24
(UTC+00:00)

ISS - Pass Details

Date: 24 May 2021
Orbit: 417 x 422 km, 51.6° (Epoch: 15 June)

Event Time Altitude Azimuth Distance (km) Brightness Sun altitude
Rises 22:35:13 0° 288° (WNW) 2,370 0.5 -18.8°
Reaches altitude 10° 22:37:28 10° 277° (W) 1,504 -0.7 -18.8°
Enters shadow 22:39:24 25° 249° (WSW) 904 -2.2 -18.9°
